Showing default

SCATSAT 1, 41790

Orbit data source: Space-Track

SCATSAT 1, 41790 is a payload satellite owned by ISRO (IN) in SSO that was launched on Mon, 26 Sep 2016 UTC via a PSLV launch vehicle from the Sirharikota (SRI). Payload-class satellites include a variety of spacecraft equipped with specific instruments for various scientific and technological missions. These include communications satellites like Starlink; space stations such as the ISS; scientific satellites like the Hubble; Earth observation satellites from companies like Planet Labs, Umbra, and HawkEye 360; GPS; miniature CubeSats for education and research; and military/defense satellites.

Loading next visibility...
Identifier
41790, 2016-059H
Orbit
SSO
Country
Flag of ININ / IND
Related business
Manufacturer
ISRO SAC/Banga
Mission
Operational Civil Earth Obs Sci
Bus & Motor
SSB-2, Unknown motor
Mass
370 kg wet, ~350 kg dry
Launch date (UTC)
2016-09-26 (10 years ago)
Launch vehicle
PSLV
Launch site
Sirharikota (SRI)
Object type
Payload
Rocket body
Debris
Shape & HBR
Box + 2 Pan, 2.0 m
Radar Cross Section
4.015 m², Large (>1 m²)

Expand to show TLE details & history
Last TLE update: 2 days ago

TLE from 2 days ago
0 SCATSAT 1
1 41790U 16059H   26171.45951691  .00000807  00000-0  11295-3 0  9995
2 41790  98.1189 235.2594 0053498 236.6981 122.9100 14.79531207102077
Epoch: 2026-06-20T11:01Z
TLE epoch observation values (Epoch: 2026-06-20T11:01:42.261Z)
Latitude
Longitude
161.15948°
Altitude
654.336 km
Speed
7.519 km/s
True Right ascension
15h 41m 02s
True Declination
0° 00' 00"
Sunlit
Object was in full shadow at epoch
Visualization orbit readout
Latitude
Unknown
Longitude
Unknown
Altitude
Unknown
Speed
Unknown
Apparent Right ascension
Unknown
Apparent Declination
Unknown
Sunlit
N/A
Visualization observer readout
Local Sidereal Time
21:38:05
Azimuth
Unknown
Elevation
Unknown
Doppler factor
Unknown
Orbital elements
Apogee altitude
665.336 km
Perigee altitude
590.375 km
Semi-major axis
7,005.993 km
Eccentricity
0.00535
Inclination
98.1189°
RAAN
235.2594°
Arg. of periapsis
236.6981°
True anomaly
123.42279°
Mean anomaly
122.91°
Eccentric anomaly
123.16658°
Mean motion
3.70117 °/min
Orbital period
97.27 mins
BSTAR
0.00011295
Loading maneuver chart data...
Computing Atmospheric mass density...
Loading historical data...
Loading historical data...
Loading historical data...
Loading historical data...
Loading historical data...
Loading historical data...
Loading historical data...

Documentation

Showing up to 5 results
|